| time (UTC) | temp F | wind direction | speed MPH | gust MPH | rain 1hr in | rain 24hr in | rain mn in | humidity % | barometer mb |
| 20260831001532 | 68 | 192 | 3.0 | 10.0 | 0.00 | 0.00 | 0.00 | 29 | 1005.5 |
| 20260831000019 | 68 | 206 | 3.0 | 14.0 | 0.00 | 0.00 | 0.00 | 29 | 1005.7 |
| 20260830234535 | 69 | 258 | 5.0 | 14.0 | 0.00 | 0.00 | 0.00 | 28 | 1005.7 |
| 20260830233021 | 69 | 296 | 6.0 | 14.0 | 0.00 | 0.00 | 0.00 | 27 | 1005.7 |
| 20260830231517 | 69 | 209 | 4.0 | 13.0 | 0.00 | 0.00 | 0.00 | 27 | 1005.9 |
| 20260830230029 | 69 | 246 | 3.0 | 12.0 | 0.00 | 0.00 | 0.00 | 27 | 1006.0 |
| 20260830224523 | 69 | 287 | 4.0 | 16.0 | 0.00 | 0.00 | 0.00 | 27 | 1006.2 |
| 20260830223018 | 69 | 298 | 7.0 | 16.0 | 0.00 | 0.00 | 0.00 | 24 | 1006.4 |
| 20260830221509 | 70 | 243 | 3.0 | 16.0 | 0.00 | 0.00 | 0.00 | 24 | 1006.8 |
| 20260830220023 | 70 | 294 | 5.0 | 14.0 | 0.00 | 0.00 | 0.00 | 21 | 1007.0 |
| 20260830214508 | 70 | 277 | 2.0 | 19.0 | 0.00 | 0.00 | 0.00 | 22 | 1007.2 |
| 20260830213008 | 69 | 280 | 4.0 | 19.0 | 0.00 | 0.00 | 0.00 | 20 | 1007.2 |
| 20260830211507 | 71 | 265 | 3.0 | 18.0 | 0.00 | 0.00 | 0.00 | 19 | 1007.4 |
| 20260830210006 | 71 | 199 | 3.0 | 14.0 | 0.00 | 0.00 | 0.00 | 17 | 1007.5 |
| 20260830204510 | 71 | 275 | 4.0 | 13.0 | 0.00 | 0.00 | 0.00 | 16 | 1007.6 |
| 20260830203007 | 71 | 199 | 4.0 | 10.0 | 0.00 | 0.00 | 0.00 | 16 | 1007.8 |
| 20260830201519 | 70 | 276 | 4.0 | 14.0 | 0.00 | 0.00 | 0.00 | 15 | 1007.7 |
| 20260830200006 | 71 | 271 | 4.0 | 11.0 | 0.00 | 0.00 | 0.00 | 16 | 1007.7 |
| 20260830194505 | 72 | 303 | 2.0 | 7.0 | 0.00 | 0.00 | 0.00 | 15 | 1007.8 |
| 20260830193005 | 70 | 252 | 3.0 | 11.0 | 0.00 | 0.00 | 0.00 | 17 | 1007.9 |
| 20260830191504 | 70 | 195 | 2.0 | 9.0 | 0.00 | 0.00 | 0.00 | 19 | 1008.1 |
| 20260830190101 | 70 | 129 | 2.0 | 8.0 | 0.00 | 0.00 | 0.00 | 16 | 1008.3 |
| 20260830184559 | 68 | 114 | 5.0 | 10.0 | 0.00 | 0.00 | 0.00 | 15 | 1008.5 |
| 20260830183101 | 68 | 69 | 2.0 | 6.0 | 0.00 | 0.00 | 0.00 | 15 | 1008.6 |
| 20260830181609 | 67 | 35 | 3.0 | 8.0 | 0.00 | 0.00 | 0.00 | 16 | 1008.6 |
| 20260830180108 | 67 | 163 | 2.0 | 8.0 | 0.00 | 0.00 | 0.00 | 16 | 1008.7 |
| 20260830174606 | 66 | 137 | 1.0 | 9.0 | 0.00 | 0.00 | 0.00 | 18 | 1008.8 |
| 20260830173109 | 66 | 74 | 2.0 | 7.0 | 0.00 | 0.00 | 0.00 | 18 | 1008.7 |
| 20260830171553 | 66 | 80 | 3.0 | 8.0 | 0.00 | 0.00 | 0.00 | 18 | 1008.7 |
| 20260830170051 | 65 | 126 | 2.0 | 4.0 | 0.00 | 0.00 | 0.00 | 19 | 1008.6 |
| 20260830164550 | 64 | 132 | 1.0 | 4.0 | 0.00 | 0.00 | 0.00 | 19 | 1008.7 |
| 20260830163056 | 63 | 140 | 2.0 | 7.0 | 0.00 | 0.00 | 0.00 | 20 | 1008.8 |
| 20260830161550 | 64 | 149 | 2.0 | 4.0 | 0.00 | 0.00 | 0.00 | 21 | 1008.8 |
| 20260830160048 | 64 | 206 | 2.0 | 4.0 | 0.00 | 0.00 | 0.00 | 21 | 1008.7 |
| 20260830154546 | 63 | 165 | 0.0 | 3.0 | 0.00 | 0.00 | 0.00 | 22 | 1008.6 |
| 20260830153047 | 61 | 142 | 1.0 | 4.0 | 0.00 | 0.00 | 0.00 | 26 | 1008.5 |
| 20260830151541 | 61 | 80 | 2.0 | 8.0 | 0.00 | 0.00 | 0.00 | 24 | 1008.4 |
| 20260830150038 | 59 | 56 | 2.0 | 7.0 | 0.00 | 0.00 | 0.00 | 32 | 1008.3 |
| 20260830144540 | 57 | 315 | 3.0 | 10.0 | 0.00 | 0.00 | 0.00 | 33 | 1008.3 |
| 20260830143031 | 56 | 275 | 4.0 | 12.0 | 0.00 | 0.00 | 0.00 | 34 | 1008.2 |
| 20260830141528 | 55 | 292 | 2.0 | 9.0 | 0.00 | 0.00 | 0.00 | 35 | 1007.6 |
| 20260830140027 | 54 | 256 | 5.0 | 6.0 | 0.00 | 0.00 | 0.00 | 35 | 1007.2 |
| 20260830134522 | 0 | 0.0 | 0.0 | 0.00 | 0.00 | 0.00 | 1007.1 | ||
| 20260830133035 | 0 | 0.0 | 0.0 | 0.00 | 0.00 | 0.00 | 1007.0 | ||
| 20260830131515 | 0 | 0.0 | 0.0 | 0.00 | 0.00 | 0.00 | 1007.0 | ||
| 20260830130011 | 0 | 0.0 | 0.0 | 0.00 | 0.00 | 0.00 | 1007.0 | ||
| 20260830124511 | 0 | 0.0 | 0.0 | 0.00 | 0.00 | 0.00 | 1007.3 | ||
| 20260830123002 | 0 | 0.0 | 0.0 | 0.00 | 0.00 | 0.00 | 1007.7 | ||
| 20260830121501 | 53 | 229 | 3.0 | 9.0 | 0.00 | 0.00 | 0.00 | 34 | 1007.8 |
| 20260830114602 | 53 | 246 | 3.0 | 8.0 | 0.00 | 0.00 | 0.00 | 34 | 1007.9 |
| 20260830113100 | 53 | 271 | 4.0 | 8.0 | 0.00 | 0.00 | 0.00 | 36 | 1008.0 |
| 20260830111601 | 54 | 219 | 3.0 | 10.0 | 0.00 | 0.00 | 0.00 | 37 | 1007.8 |
| 20260830110110 | 54 | 245 | 3.0 | 18.0 | 0.00 | 0.00 | 0.00 | 37 | 1007.8 |
| 20260830104557 | 53 | 300 | 4.0 | 12.0 | 0.00 | 0.00 | 0.00 | 41 | 1007.7 |
| 20260830103055 | 53 | 214 | 4.0 | 17.0 | 0.00 | 0.00 | 0.00 | 44 | 1007.8 |
| 20260830101553 | 53 | 232 | 3.0 | 10.0 | 0.00 | 0.00 | 0.00 | 43 | 1007.8 |
| 20260830100051 | 52 | 275 | 2.0 | 10.0 | 0.00 | 0.00 | 0.00 | 46 | 1007.7 |
| 20260830094608 | 52 | 275 | 4.0 | 9.0 | 0.00 | 0.00 | 0.00 | 49 | 1007.5 |
| 20260830093048 | 52 | 269 | 4.0 | 12.0 | 0.00 | 0.00 | 0.00 | 48 | 1007.6 |
| 20260830091547 | 52 | 264 | 3.0 | 10.0 | 0.00 | 0.00 | 0.00 | 48 | 1007.6 |
| 20260830090049 | 52 | 246 | 3.0 | 10.0 | 0.00 | 0.00 | 0.00 | 54 | 1007.4 |
| 20260830084544 | 53 | 230 | 2.0 | 9.0 | 0.00 | 0.00 | 0.00 | 52 | 1007.5 |
| 20260830083043 | 53 | 267 | 4.0 | 12.0 | 0.00 | 0.00 | 0.00 | 54 | 1007.5 |
| 20260830081541 | 53 | 270 | 5.0 | 14.0 | 0.00 | 0.00 | 0.00 | 56 | 1007.6 |
| 20260830080047 | 53 | 277 | 5.0 | 10.0 | 0.00 | 0.00 | 0.00 | 55 | 1007.8 |
| 20260830074538 | 52 | 278 | 6.0 | 12.0 | 0.00 | 0.00 | 0.00 | 53 | 1007.9 |
| 20260830073038 | 52 | 281 | 5.0 | 9.0 | 0.00 | 0.00 | 0.00 | 56 | 1007.9 |
| 20260830071538 | 52 | 262 | 4.0 | 9.0 | 0.00 | 0.00 | 0.00 | 56 | 1008.1 |
| 20260830070041 | 53 | 336 | 3.0 | 9.0 | 0.00 | 0.00 | 0.00 | 55 | 1008.1 |
| 20260830064544 | 53 | 290 | 5.0 | 13.0 | 0.00 | 0.00 | 0.00 | 55 | 1008.2 |
| 20260830063034 | 53 | 282 | 3.0 | 12.0 | 0.00 | 0.00 | 0.00 | 53 | 1008.3 |
| 20260830061534 | 53 | 267 | 4.0 | 11.0 | 0.00 | 0.00 | 0.00 | 53 | 1008.2 |
| 20260830060035 | 53 | 265 | 3.0 | 10.0 | 0.00 | 0.00 | 0.00 | 54 | 1008.2 |
| 20260830054541 | 53 | 271 | 5.0 | 14.0 | 0.00 | 0.00 | 0.00 | 60 | 1008.4 |
| 20260830053034 | 52 | 290 | 6.0 | 12.0 | 0.00 | 0.00 | 0.00 | 63 | 1008.6 |
| 20260830051534 | 52 | 273 | 6.0 | 15.0 | 0.00 | 0.00 | 0.00 | 64 | 1008.7 |
| 20260830050034 | 52 | 272 | 5.0 | 11.0 | 0.00 | 0.00 | 0.00 | 65 | 1008.8 |
| 20260830044533 | 52 | 267 | 3.0 | 10.0 | 0.00 | 0.00 | 0.00 | 66 | 1009.0 |
| 20260830043030 | 52 | 286 | 3.0 | 8.0 | 0.00 | 0.00 | 0.00 | 66 | 1008.9 |
| 20260830041529 | 52 | 270 | 3.0 | 7.0 | 0.00 | 0.00 | 0.00 | 65 | 1008.9 |
| 20260830040027 | 53 | 265 | 2.0 | 6.0 | 0.00 | 0.00 | 0.00 | 63 | 1008.9 |
| 20260830034530 | 54 | 260 | 2.0 | 7.0 | 0.00 | 0.00 | 0.00 | 62 | 1008.9 |
| 20260830033026 | 54 | 296 | 1.0 | 6.0 | 0.00 | 0.00 | 0.00 | 62 | 1008.8 |
| 20260830031525 | 55 | 267 | 0.0 | 9.0 | 0.00 | 0.00 | 0.00 | 60 | 1008.6 |
| 20260830030030 | 55 | 322 | 0.0 | 4.0 | 0.00 | 0.00 | 0.00 | 59 | 1008.4 |
| 20260830024532 | 56 | 279 | 1.0 | 7.0 | 0.00 | 0.00 | 0.00 | 57 | 1008.3 |
| 20260830023027 | 57 | 279 | 1.0 | 5.0 | 0.00 | 0.06 | 0.00 | 55 | 1008.4 |
| 20260830021530 | 58 | 305 | 1.0 | 6.0 | 0.00 | 0.06 | 0.00 | 52 | 1008.4 |
| 20260830020028 | 58 | 172 | 0.0 | 6.0 | 0.00 | 0.06 | 0.00 | 50 | 1008.3 |
| 20260830014526 | 59 | 259 | 1.0 | 4.0 | 0.00 | 0.06 | 0.00 | 46 | 1008.4 |
| 20260830013023 | 61 | 296 | 3.0 | 10.0 | 0.00 | 0.06 | 0.00 | 44 | 1008.3 |
| 20260830011522 | 62 | 219 | 1.0 | 22.0 | 0.00 | 0.06 | 0.00 | 42 | 1008.4 |
| 20260830010022 | 63 | 281 | 3.0 | 10.0 | 0.00 | 0.06 | 0.00 | 42 | 1008.3 |
| 20260830004522 | 64 | 232 | 1.0 | 11.0 | 0.00 | 0.06 | 0.00 | 39 | 1008.2 |
| 20260830003021 | 64 | 287 | 3.0 | 19.0 | 0.00 | 0.09 | 0.00 | 38 | 1008.1 |